EDT,Max TemperatureF,Mean TemperatureF,Min TemperatureF,Max Dew PointF,MeanDew PointF,Min DewpointF,Max Humidity, Mean Humidity, Min Humidity, Max Sea Level PressureIn, Mean Sea Level PressureIn, Min Sea Level PressureIn, Max VisibilityMiles, Mean VisibilityMiles, Min VisibilityMiles, Max Wind SpeedMPH, Mean Wind SpeedMPH, Max Gust SpeedMPH,PrecipitationIn, CloudCover, Events, WindDirDegrees
2013-9-1,89,82,75,75,73,70,94,75,55,29.88,29.84,29.79,10,10,7,29,8,17,0.00,1,,192
2013-9-2,88,81,74,73,72,70,94,75,55,29.82,29.79,29.75,10,9,6,12,6,16,T,3,,228
2013-9-3,86,77,68,73,67,59,94,68,42,29.94,29.82,29.74,10,8,2,10,4,16,0.00,1,,302
2013-9-4,82,72,61,60,57,55,84,63,42,30.07,30.03,29.95,10,10,10,10,4,15,0.00,0,,288
2013-9-5,85,74,62,64,60,48,93,69,44,30.13,30.04,29.99,10,10,7,20,6,25,0.00,2,,316
2013-9-6,75,65,55,55,52,48,86,66,46,30.24,30.18,30.14,10,10,10,9,5,15,0.00,1,,45
2013-9-7,80,66,52,60,54,50,96,68,39,30.16,30.07,29.96,10,10,10,14,2,16,0.00,0,,55
2013-9-8,87,75,63,66,62,57,90,68,45,30.05,29.92,29.86,10,10,10,14,5,20,0.00,1,,280
2013-9-9,78,71,63,65,61,51,93,75,56,30.20,30.16,30.07,10,10,10,14,6,17,0.00,3,,94
2013-9-10,90,78,65,71,69,63,93,73,52,30.21,30.17,30.12,10,10,8,15,7,20,0.00,2,,207
2013-9-11,93,82,71,72,70,67,93,71,49,30.17,30.11,30.05,10,8,3,16,7,21,0.00,0,,205
2013-9-12,92,81,70,71,68,60,93,65,36,30.03,29.89,29.75,10,8,4,22,9,22,0.27,1,Rain,207
2013-9-13,80,71,62,70,62,51,93,66,39,29.88,29.75,29.69,10,8,5,15,5,21,0.00,4,,295
2013-9-14,70,61,52,53,49,46,89,67,44,30.17,30.04,29.90,10,10,10,13,4,18,0.00,2,,343
2013-9-15,76,61,46,56,50,44,93,67,41,30.26,30.19,30.13,10,10,10,13,3,20,0.00,0,,201
2013-9-16,76,68,59,63,59,53,87,73,59,30.22,30.11,30.07,10,10,7,14,4,18,0.01,5,Rain,329
2013-9-17,66,57,47,52,46,43,86,66,45,30.41,30.34,30.23,10,10,10,21,8,26,0.00,1,,35
2013-9-18,71,58,45,51,47,42,89,67,44,30.35,30.29,30.23,10,10,10,12,2,17,0.00,1,,119
2013-9-19,76,62,47,53,50,45,93,67,41,30.22,30.17,30.12,10,10,10,13,2,17,0.00,0,,150
2013-9-20,78,64,50,58,53,47,93,68,42,30.12,30.07,30.01,10,10,10,14,3,24,0.00,1,,127
2013-9-21,83,68,52,67,58,49,96,69,42,30.02,29.88,29.73,10,7,0,18,7,25,0.34,5,Fog-Rain,183
2013-9-22,75,65,55,65,57,47,93,66,38,29.92,29.79,29.69,10,10,6,14,5,21,0.07,5,Rain,307
2013-9-23,67,58,49,48,44,41,86,64,42,30.07,30.02,29.93,10,10,10,16,5,22,0.00,1,,347
2013-9-24,71,59,47,47,44,41,86,60,34,30.10,30.02,29.95,10,10,10,12,4,16,0.00,0,,312
2013-9-25,75,62,48,55,50,45,93,65,36,29.96,29.93,29.89,10,10,10,12,2,17,0.00,0,,11
2013-9-26,73,64,54,57,55,52,93,75,57,30.08,30.01,29.93,10,9,1,12,3,17,0.00,2,,57
2013-9-27,72,63,54,55,53,50,93,73,53,30.24,30.17,30.08,10,10,10,15,5,26,0.00,5,,66
2013-9-28,73,65,57,56,53,51,87,68,49,30.30,30.25,30.21,10,10,8,20,7,23,T,4,Rain,37
2013-9-29,73,62,51,59,53,48,93,69,44,30.21,30.15,30.07,10,10,2,16,5,22,0.00,2,,47
2013-9-30,75,62,49,55,50,47,89,66,43,30.09,30.05,30.01,10,10,10,13,4,17,0.00,0,,36